Location: Champseau
(45.8333°N, 1.7667°E)
Time: 18:30:51
(UTC+00:00)

Ariane Rocket - Pass Details

Date: 18 April 2021
Orbit: 760 x 770 km, 98.7° (Epoch: 11 May)

Event Time Altitude Azimuth Distance (km) Brightness Sun altitude
Exits shadow 20:07:30 - 172° (S) 2,504 5.3 -14.0°
Reaches altitude 10° 20:08:02 10° 173° (S) 2,289 5.1 -14.1°
Maximum altitude 20:13:04 71° 257° (WSW) 808 3.2 -14.8°
Drops below altitude 10° 20:18:07 10° 342° (NNW) 2,303 6.3 -15.6°
Sets 20:20:27 0° 344° (NNW) 3,232 7.1 -15.9°
